Location: Street
(51.1247°N, 2.7429°W)
Time: 09:33:19
(UTC+01:00)

UWE-3 - Pass Details

Date: 07 April 2023
Orbit: 576 x 669 km, 97.7° (Epoch: 02 June)

Event Time Altitude Azimuth Distance (km) Brightness Sun altitude
Rises 02:48:09 0° 30° (NNE) 2,947 ? -28.7°
Reaches altitude 10° 02:51:37 10° 59° (ENE) 2,008 ? -28.4°
Maximum altitude 02:53:36 13° 86° (E) 1,808 ? -28.3°
Enters shadow 02:55:05 11° 107° (ESE) 1,903 ? -28.2°
